Location: Ecklingerode
(51.5036°N, 10.3122°E)
Time: 07:18:40
(UTC+00:00)

CSL-04 Debris - Pass Details

Date: 29 October 2020
Orbit: 827 x 848 km, 98.9° (Epoch: 01 December)

Event Time Altitude Azimuth Distance (km) Brightness Sun altitude
Rises 17:37:12 0° 150° (SSE) 3,378 7.1 -16.1°
Reaches altitude 10° 17:39:33 10° 147° (SSE) 2,451 6.3 -16.5°
Maximum altitude 17:44:54 61° 68° (ENE) 958 4.2 -17.3°
Drops below altitude 10° 17:50:18 10° 350° (N) 2,480 6.8 -18.2°
Sets 17:52:42 0° 347° (NNW) 3,422 7.5 -18.5°
